Location: Charlottesville
(38.0290°N, 78.4770°W)
Time: 16:31:18
(UTC-04:00)

Envisat - Pass Details

Date: 12 October 2017
Orbit: 764 x 766 km, 98.2° (Epoch: 16 July)

Event Time Altitude Azimuth Distance (km) Brightness Sun altitude
Exits shadow 19:54:57 17° 55° (NE) 1,846 4.5 -15.5°
Drops below altitude 10° 19:57:38 10° 24° (NNE) 2,311 5.3 -16.1°
Sets 20:00:38 0° 5° (N) 3,241 6.2 -16.7°
